Home   Weather   Port Vila   Past weeks
Flag for Vanuatu

Past Weather in Port Vila, Vanuatu — Yesterday and Last 2 Weeks

Now
66 °F

Passing clouds.


Feels Like: 66 °F
Forecast: 80 / 74 °F
Wind: No wind

Location: Bauerfield Efate

Current Time: May 20, 2019 at 5:37:39 am

Latest Report: May 20, 2019 at 5:00 am


Visibility: N/A

Pressure: 29.95 "Hg

Humidity: 94%

Dew Point: 64 °F

Location of Port VilaLocation

Past Weather in Port Vila — Graph

°F

Port Vila Temperature Yesterday

Maximum temperature yesterday: 81 °F (at 9:00 am)
Minimum temperature yesterday: 70 °F (at 10:00 pm)
Average temperature yesterday: 76 °F

High & Low Weather Summary for the Past Weeks

 TemperatureHumidityPressure
High86 °F (May 6, 10:00 am)100% (May 6, 4:00 am)30.01 "Hg (May 6, 4:00 am)
Low64 °F (May 16, 10:00 pm)51% (May 5, 12:00 pm)29.77 "Hg (May 5, 2:00 pm)
Average77 °F83%29.90 "Hg
* Reported May 5 5:00 am — May 20 2:00 am, Port Vila. Weather by CustomWeather, © 2019

Note: Actual official high and low records may vary slightly from our data, if they occured in-between our weather recording intervals... More about our weather records

Advertising

Port Vila Weather History for the Previous 24 Hours

Scroll right to see more
 ConditionsComfort  
Time TempWeatherWind HumidityBarometerVisibility
2:00 am
Mon, May 20
66 °FPassing clouds.No wind94%29.98 "HgN/A
1:00 am66 °FPassing clouds.2 mph94%29.98 "HgN/A
10:00 pm
Sun, May 19
70 °FPassing clouds.5 mph88%30.01 "HgN/A
9:00 pm72 °FPassing clouds.8 mph83%30.01 "HgN/A
8:00 pm72 °FPassing clouds.7 mph83%30.01 "HgN/A
7:00 pm73 °FPassing clouds.9 mph78%29.98 "HgN/A
6:00 pm75 °FPartly cloudy.9 mph74%29.95 "HgN/A
5:00 pm77 °FBroken clouds.12 mph69%29.95 "HgN/A
4:00 pm79 °FBroken clouds.15 mph65%29.92 "HgN/A
3:00 pm81 °FBroken clouds.20 mph58%29.92 "HgN/A
2:00 pm81 °FScattered clouds.18 mph62%29.92 "HgN/A
1:00 pm81 °FPartly sunny.17 mph66%29.95 "HgN/A
12:00 pm81 °FPartly sunny.20 mph62%29.95 "HgN/A
11:00 am81 °FPartly sunny.20 mph66%29.98 "HgN/A
10:00 am81 °FPartly sunny.8 mph66%30.01 "HgN/A
9:00 am81 °FBroken clouds.10 mph62%30.01 "HgN/A
8:00 am77 °FPartly sunny.8 mph100%30.01 "HgN/A
7:00 am75 °FBroken clouds.9 mph78%29.98 "HgN/A
6:00 am75 °FPassing clouds.8 mph69%29.95 "HgN/A
5:00 am73 °FPartly cloudy.8 mph78%29.92 "HgN/A
Weather by CustomWeather, © 2019

See weather overview